Location: Tel Aviv
(32.0670°N, 34.7670°E)
Time: 03:34:20
(UTC+03:00)

Tiros 1 - Pass Details

Date: 24 January 2022
Orbit: 629 x 663 km, 48.4° (Epoch: 26 May)

Event Time Altitude Azimuth Distance (km) Brightness Sun altitude
Rises 02:02:28 0° 312° (NW) 2,986 - -58.3°
Reaches altitude 10° 02:06:52 10° 349° (N) 2,066 - -57.4°
Maximum altitude 02:08:03 11° 4° (N) 2,010 - -57.1°
Drops below altitude 10° 02:09:14 10° 18° (NNE) 2,061 - -56.9°
Sets 02:13:35 0° 56° (NE) 2,961 - -56.0°
